User: anonymous   Login
Location: �chenoz-la-M�line
(47.6009°N, 6.1354°E)
Time: 18:38:37
(UTC+00:00)
Language:

STARLINK-2096 - Orbit

View from above orbital plane
View from above orbital plane
View from above satellite
View from above satellite

Ground track
Ground track

The orbit data is extracted from the following two-line orbital elements,

1 47376U 21005AD  21105.25001157 -.00053031  00000-0 -35649-2 0  9998
2 47376  53.0540 174.7125 0000959 110.8032  88.9705 15.06431948 13328
Epoch (UTC): 15 April 2021 06:00:01
Eccentricity: 0.0000959
inclination: 53.0540°
perigee height: 546 km
apogee height: 548 km
right ascension of ascending node: 174.7125°
argument of perigee: 110.8032°
revolutions per day: 15.06431948
mean anomaly at epoch: 88.9705°
orbit number at epoch: 1332

The dashed part of the orbit path shows where the satellite is in the earth's shadow,  

DLR